{"data":{"norad_id":60269,"epoch":"2026-05-25T01:11:37.644000Z","epoch_age_seconds":69883,"freshness":"FRESH","line1":"1 60269U 24131Q   26145.04974125  .00000118  00000+0  15552-4 0  9995","line2":"2 60269  53.1611  57.4624 0001133  86.6282 273.4849 15.31702337103463","mean_motion":15.31702337,"eccentricity":0.0001133,"inclination_deg":53.1611,"raan_deg":57.4624,"arg_perigee_deg":86.6282,"mean_anomaly_deg":273.4849,"bstar":1.5552e-5,"rev_number":10346,"period_min":94.013044520151,"perigee_km":469.95705178486,"apogee_km":471.50900573337,"semimajor_km":6848.8700287591,"source":"CELESTRAK","updated_at":"2026-05-25T13:38:19.201301Z"}}